Other Public Products
Issued by NWS Charleston, SC

Current Version | Previous Version | Graphics & Text | Print | Product List | Glossary On
Versions: 1 2 3 4 5 6 7 8 9 10 11 12 13 14 15 16 17 18 19 20 21 22 23 24 25 26 27 28 29 30 31 32 33 34 35 36 37 38 39 40 41 42 43 44 45 46 47 48 49 50
000 FPUS82 KCHS 240427 OPUCHS TEST...KCHS/KSAV Gateway Observations...TEST National Weather Service Charleston SC 1200 AM EDT MON JUL 24 2017 NOTE: "fair" indicates few or no clouds below 12,000 feet with no significant weather and/or obstructions to visibility. SCZ050-WAZ558-NCZ071-TXZ119-213-PAZ071-DCZ001-FLZ074-172-MI076- NYZ176-178-MAZ016-IL014-TNZ027-NJZ106-GAZ044-MD014-240500- ...Gateway Observations for Charleston International... CITY SKY/WX TMP DP RH WIND PRES REMARKS Chas Airport MOCLDY 79 73 82 SW8 29.95R Seattle PTCLDY 68 53 58 NW9 30.02R Charlotte CLOUDY 73 69 87 W8 29.93F Dallas DFW CLOUDY 80 69 69 E25G37 29.94R THUNDER Dallas Love CLOUDY 79 69 71 E23G37 29.94R THUNDER Philladelphia LGT RAIN 72 69 90 E8 29.81F Wash National TSTM 76 74 93 N13 29.78S Baltimore TSTM 76 76 100 SE3 29.76F FOG Miami MOCLDY 84 74 71 SE3 30.04F HX 91 Detroit CLOUDY 71 67 87 NW5 29.78R Newark CLOUDY 74 66 76 E8 29.85R Laguardia CLOUDY 74 68 81 SE13 29.86R J F K CLOUDY 74 70 87 E9 29.88R Boston Logan CLOUDY 64 57 78 MISG N/A Ft. Lauderdale PTCLDY 84 75 74 S5 30.04F HX 92 Chicago O`Hare PTCLDY 72 66 81 N7 29.86R Chicago Midway PTCLDY 73 65 75 N9 29.85R Houston Bush PTCLDY 84 73 69 S9 29.92R HX 90 Houston Hobby CLOUDY 84 74 71 S7 29.91S HX 91 Nashville CLOUDY 76 72 87 S10 29.93R Atlanta MOCLDY 80 74 81 SW3 29.96S $$ GAZ044-118-TXZ119-213-NCZ071-DCZ001-MDZ014-506-PAZ021-071-NJZ106- NYZ176-178-MAZ106-OHZ011-021-055-MIZ076-KYZ091-ILZ014-INZ047- MNZ060-ONZ431-240500- ...Gateway Observations for Savannah International... CITY SKY/WX TMP DP RH WIND PRES REMARKS Savannah Arpt CLOUDY 77 74 90 SW8 29.95F Atlanta MOCLDY 80 74 81 SW3 29.96S Charlotte CLOUDY 73 69 87 W8 29.93F Dallas DFW CLOUDY 80 69 69 E25G37 29.94R THUNDER Houston Bush PTCLDY 84 73 69 S9 29.92R HX 90 Wash National TSTM 76 74 93 N13 29.78S Wash Dulles CLOUDY 74 72 93 NW5 29.77F Baltimore TSTM 76 76 100 SE3 29.76F FOG Philadelphia LGT RAIN 72 69 90 E8 29.81F Newark CLOUDY 74 66 76 E8 29.85R Laguardia CLOUDY 74 68 81 SE13 29.86R J F K CLOUDY 74 70 87 E9 29.88R Boston CLOUDY 64 57 78 MISG N/A Pittsburg CLOUDY 69 68 96 W3 29.81R Akron CLOUDY 71 66 84 W7 29.80S Cleveland MOCLDY 73 66 78 SW6 29.79F Cincinnati CLEAR 72 70 93 SW6 29.84F Columbus CLEAR 67 67 100 CALM 29.82R Detroit CLOUDY 71 67 87 NW5 29.78R Chicago O`Hare PTCLDY 72 66 81 N7 29.86R Minneapolis CLEAR 67 57 70 E8 30.01R Indianapolis CLOUDY 74 72 93 SW5 29.84R Toronto Canada CLOUDY 70 57 64 E12 29.75R $$

USA.gov is the U.S. government's official web portal to all federal, state and local government web resources and services.